User: anonymous   Login
Location: Unspecified
(0.0000°N, 0.0000°E)
Time: 21:44:52
(UTC+00:00)
Language:

Transit 2A - Orbit

View from above orbital plane
View from above orbital plane
View from above satellite
View from above satellite

Ground track
Ground track

The orbit data is extracted from the following two-line orbital elements,

1    45U 60007A   20275.27187283 -.00000048 +00000-0 +15163-4 0  9999
2    45 066.6928 102.0287 0261918 239.3988 118.1045 14.33688222081005
Epoch (UTC): 01 October 2020 06:31:29
Eccentricity: 0.0261918
inclination: 66.6928°
perigee height: 592 km
apogee height: 967 km
right ascension of ascending node: 102.0287°
argument of perigee: 239.3988°
revolutions per day: 14.33688222
mean anomaly at epoch: 118.1045°
orbit number at epoch: 8100

The dashed part of the orbit path shows where the satellite is in the earth's shadow,  

DLR